Location: Camp Crooked Creek
(37.9149°N, 85.6607°W)
Time: 02:22:34
(UTC-04:00)

Amateur Radio Satellites - All Passes

Search period start: 22 October 2014 01:52
Search period end: 23 October 2014 01:52
Location: Camp Crooked Creek, 37.9149°N, 85.6607°W

Satellite Date Start Highest point End Downlink Frequencies (MHz)
Time Altitude Azimuth
Oscar 16 22 Oct 01:59:50 02:02:04 13° 91° (E) 02:04:18 437.025 USB, Beacon 2401.1428
AO-Echo 22 Oct 02:22:06 02:23:28 11° 89° (E) 02:24:50 ?
UOSAT-12 22 Oct 02:22:57 02:27:00 29° 248° (WSW) 02:30:58 437.025 FM, 437.400 FM
MaSat-1 22 Oct 02:44:38 02:46:40 13° 304° (NW) 02:48:36 437.345 MHz
JAS-1B 22 Oct 02:47:37 02:53:48 39° 99° (E) 03:01:02 435.800 - 435.900 CW/SSB
Oscar 19 22 Oct 02:51:42 02:56:34 43° 99° (E) 03:01:24 437.125 CW, 437.150 USB
AO-27 22 Oct 03:01:57 03:05:56 22° 94° (E) 03:09:53 436.795 MHz FM
Oscar 16 22 Oct 03:36:46 03:41:51 66° 286° (WNW) 03:46:55 437.025 USB, Beacon 2401.1428
Uribyol 2 22 Oct 03:50:26 03:55:39 69° 102° (ESE) 04:00:48 436.500 FM
ITAMSAT 1 22 Oct 03:55:37 04:00:51 73° 102° (ESE) 04:06:03 435.822 SSB
PCSat 22 Oct 03:56:34 03:57:42 11° 102° (ESE) 03:58:49 145.825 MHz
Gurwin Techsat 1B 22 Oct 03:56:49 04:01:45 38° 98° (E) 04:06:40 435.225 FM
AO-Echo 22 Oct 03:57:26 04:02:46 81° 284° (WNW) 04:08:05 ?
RS-15 22 Oct 03:57:59 04:04:10 16° 349° (N) 04:10:25 29.354 - 29.394 USB, Beacon 29.352 USB
TMSAT-1 22 Oct 04:10:11 04:15:06 37° 98° (E) 04:19:58 436.925 FM
Oscar 19 22 Oct 04:31:49 04:35:35 21° 295° (WNW) 04:39:20 437.125 CW, 437.150 USB
AO-7 22 Oct 04:36:01 04:41:25 18° 92° (E) 04:46:46 29.400 - 29.500 MHz
OPAL 22 Oct 04:37:57 04:40:36 14° 60° (ENE) 04:43:15 ?
JAS-1B 22 Oct 04:38:29 04:44:20 36° 291° (WNW) 04:51:09 435.800 - 435.900 CW/SSB
AO-27 22 Oct 04:40:40 04:45:34 42° 290° (WNW) 04:50:26 436.795 MHz FM
Sapphire 22 Oct 05:12:09 05:17:24 55° 113° (ESE) 05:22:41 437.095 MHz 1200 baud AX-25 AFSK
Uribyol 2 22 Oct 05:31:48 05:34:30 14° 298° (WNW) 05:37:11 436.500 FM
PCSat 22 Oct 05:34:52 05:40:17 86° 297° (WNW) 05:45:44 145.825 MHz
ITAMSAT 1 22 Oct 05:37:09 05:39:41 14° 299° (WNW) 05:42:13 435.822 SSB
Gurwin Techsat 1B 22 Oct 05:37:13 05:41:29 25° 293° (WNW) 05:45:45 435.225 FM
Uosat F 22 Oct 05:39:52 05:44:34 38° 98° (E) 05:49:13 435.120 FM
TMSAT-1 22 Oct 05:50:30 05:54:47 26° 293° (WNW) 05:59:04 436.925 FM
JAS-2 22 Oct 06:11:58 06:18:30 29° 93° (E) 06:25:01 435.800 - 435.900 CW/SSB, 435.910 FM
OPAL 22 Oct 06:13:44 06:18:53 70° 256° (WSW) 06:24:00 ?
RS-15 22 Oct 06:14:37 06:22:41 22° 27° (NNE) 06:30:53 29.354 - 29.394 USB, Beacon 29.352 USB
STRAND 1 22 Oct 06:18:00 06:19:57 12° 61° (ENE) 06:21:54 ?
AO-7 22 Oct 06:26:38 06:34:59 83° 289° (WNW) 06:43:19 29.400 - 29.500 MHz
Sapphire 22 Oct 06:57:04 07:01:09 22° 311° (NW) 07:05:17 437.095 MHz 1200 baud AX-25 AFSK
Hamsat 22 Oct 07:16:15 07:20:21 52° 100° (E) 07:24:27 145.90 MHz
Uosat F 22 Oct 07:19:09 07:23:06 23° 294° (WNW) 07:27:01 435.120 FM
PCSat 22 Oct 07:21:47 07:24:30 14° 316° (NW) 07:27:14 145.825 MHz
STRAND 1 22 Oct 07:53:18 07:58:25 80° 257° (WSW) 08:03:35 ?
JAS-2 22 Oct 07:56:11 08:03:43 58° 289° (WNW) 08:11:21 435.800 - 435.900 CW/SSB, 435.910 FM
Saudisat 1A 22 Oct 08:15:17 08:18:24 19° 111° (ESE) 08:21:33 436.775 MHz
AO-7 22 Oct 08:21:28 08:26:33 18° 308° (NW) 08:31:38 29.400 - 29.500 MHz
RS-15 22 Oct 08:26:40 08:37:47 65° 55° (NE) 08:49:21 29.354 - 29.394 USB, Beacon 29.352 USB
Hamsat 22 Oct 08:54:08 08:55:50 12° 295° (WNW) 08:57:31 145.90 MHz
SO-67 22 Oct 09:01:00 09:04:25 60° 284° (WNW) 09:07:48 435.3500 MHz FM
PANSAT 22 Oct 09:03:20 09:03:44 10° 162° (SSE) 09:04:07 not established
JAS-2 22 Oct 09:45:15 09:47:13 11° 306° (NW) 09:49:12 435.800 - 435.900 CW/SSB, 435.910 FM
Saudisat 1A 22 Oct 09:53:34 09:57:41 39° 306° (NW) 10:01:50 436.775 MHz
UKube-1 22 Oct 10:14:35 10:16:15 12° 92° (E) 10:17:54 145.840 MHz, 145.915 MHz
HO-68 22 Oct 10:21:10 10:28:08 50° 101° (E) 10:35:03 435.675 MHz FM
RS-15 22 Oct 10:39:50 10:49:28 35° 254° (WSW) 10:59:30 29.354 - 29.394 USB, Beacon 29.352 USB
PANSAT 22 Oct 10:40:30 10:43:12 19° 174° (S) 10:45:55 not established
FUNcube-1 22 Oct 10:50:02 10:50:43 10° 90° (E) 10:51:24 145.950 - 145.970 MHz USB
MaSat-1 22 Oct 10:55:09 10:57:45 54° 64° (ENE) 11:00:07 437.345 MHz
Oscar 11 22 Oct 10:56:47 11:00:43 34° 98° (E) 11:04:38 145.825 FM, Beacon 2401.500 USB
ZACube-1 22 Oct 11:37:55 11:41:57 40° 98° (E) 11:45:54 437.345 MHz
UKube-1 22 Oct 11:48:28 11:52:44 54° 287° (WNW) 11:56:59 145.840 MHz, 145.915 MHz
KITSAT 1 22 Oct 12:09:26 12:14:47 20° 102° (ESE) 12:20:08 435.175 FM
HO-68 22 Oct 12:09:27 12:15:29 30° 298° (WNW) 12:21:30 435.675 MHz FM
PANSAT 22 Oct 12:20:07 12:22:47 18° 187° (S) 12:25:26 not established
FUNcube-1 22 Oct 12:23:17 12:27:28 56° 286° (WNW) 12:31:34 145.950 - 145.970 MHz USB
Oscar 11 22 Oct 12:33:38 12:36:38 19° 293° (WNW) 12:39:38 145.825 FM, Beacon 2401.500 USB
ISS 22 Oct 13:13:04 13:14:06 11° 127° (SE) 13:15:09 145.800 FM
Oscar 16 22 Oct 13:14:52 13:18:11 18° 64° (ENE) 13:21:30 437.025 USB, Beacon 2401.1428
ZACube-1 22 Oct 13:15:27 13:17:59 16° 294° (WNW) 13:20:29 437.345 MHz
SO-50 22 Oct 13:16:00 13:18:12 14° 108° (ESE) 13:20:24 436.795 FM
Uribyol 2 22 Oct 13:32:20 13:33:04 10° 59° (ENE) 13:33:49 436.500 FM
JAS-1B 22 Oct 13:33:47 13:38:24 24° 65° (ENE) 13:42:48 435.800 - 435.900 CW/SSB
AO-Echo 22 Oct 13:33:47 13:35:29 12° 61° (ENE) 13:37:13 ?
ITAMSAT 1 22 Oct 13:37:04 13:38:21 11° 60° (ENE) 13:39:39 435.822 SSB
KITSAT 1 22 Oct 14:01:09 14:09:14 80° 299° (WNW) 14:17:22 435.175 FM
Sapphire 22 Oct 14:02:05 14:06:54 31° 54° (NE) 14:11:41 437.095 MHz 1200 baud AX-25 AFSK
Oscar 19 22 Oct 14:06:46 14:11:46 53° 72° (ENE) 14:16:46 437.125 CW, 437.150 USB
AO-27 22 Oct 14:18:22 14:22:45 29° 67° (ENE) 14:27:10 436.795 MHz FM
PCSat 22 Oct 14:24:40 14:29:58 51° 58° (ENE) 14:35:13 145.825 MHz
ISS 22 Oct 14:47:04 14:50:23 67° 322° (NW) 14:53:42 145.800 FM
Oscar 16 22 Oct 14:52:01 14:57:04 54° 259° (W) 15:02:08 437.025 USB, Beacon 2401.1428
Oscar 10/S400 22 Oct 14:52:46 15:11:17 45° 155° (SSE) 15:35:22 145.825 - 145.975 CW/USB, Beacon 145.810 USB
SO-50 22 Oct 14:53:47 14:58:11 57° 304° (NW) 15:02:44 436.795 FM
UOSAT-12 22 Oct 14:54:41 14:56:38 13° 107° (ESE) 14:58:35 437.025 FM, 437.400 FM
Uribyol 2 22 Oct 15:06:29 15:11:42 86° 76° (ENE) 15:16:58 436.500 FM
AO-Echo 22 Oct 15:08:42 15:13:31 76° 258° (WSW) 15:18:32 ?
ITAMSAT 1 22 Oct 15:11:50 15:17:02 90° 259° (W) 15:22:18 435.822 SSB
Gurwin Techsat 1B 22 Oct 15:16:07 15:21:14 51° 72° (ENE) 15:26:22 435.225 FM
JAS-1B 22 Oct 15:23:01 15:28:53 42° 260° (W) 15:34:17 435.800 - 435.900 CW/SSB
TMSAT-1 22 Oct 15:29:09 15:34:13 49° 72° (ENE) 15:39:20 436.925 FM
AO-7 22 Oct 15:33:27 15:39:41 25° 56° (NE) 15:45:56 29.400 - 29.500 MHz
Sapphire 22 Oct 15:45:26 15:50:18 35° 251° (WSW) 15:55:09 437.095 MHz 1200 baud AX-25 AFSK
Oscar 19 22 Oct 15:48:10 15:51:23 17° 268° (W) 15:54:37 437.125 CW, 437.150 USB
AO-27 22 Oct 15:57:31 16:02:08 32° 263° (W) 16:06:48 436.795 MHz FM
KITSAT 1 22 Oct 16:00:17 16:05:57 20° 321° (NW) 16:11:39 435.175 FM
PCSat 22 Oct 16:09:07 16:12:56 20° 255° (WSW) 16:16:45 145.825 MHz
ISS 22 Oct 16:25:50 16:27:36 14° 340° (NNW) 16:29:23 145.800 FM
UOSAT-12 22 Oct 16:31:35 16:36:10 65° 303° (WNW) 16:40:52 437.025 FM, 437.400 FM
Saudisat 1A 22 Oct 16:43:49 16:45:45 13° 42° (NE) 16:47:40 436.775 MHz
Uosat F 22 Oct 16:51:23 16:56:07 44° 71° (ENE) 17:00:53 435.120 FM
Gurwin Techsat 1B 22 Oct 16:57:53 17:01:27 18° 267° (W) 17:05:03 435.225 FM
TMSAT-1 22 Oct 17:10:44 17:14:23 19° 267° (W) 17:18:02 436.925 FM
AO-7 22 Oct 17:23:25 17:31:40 74° 254° (WSW) 17:39:59 29.400 - 29.500 MHz
JAS-2 22 Oct 18:06:30 18:12:05 54° 71° (ENE) 18:18:25 435.800 - 435.900 CW/SSB, 435.910 FM
Hamsat 22 Oct 18:08:03 18:11:44 30° 71° (ENE) 18:15:24 145.90 MHz
Saudisat 1A 22 Oct 18:21:27 18:25:54 83° 240° (WSW) 18:30:18 436.775 MHz
OPAL 22 Oct 18:25:46 18:30:17 34° 100° (E) 18:34:44 ?
Uosat F 22 Oct 18:31:32 18:35:04 19° 266° (W) 18:38:38 435.120 FM
AO-7 22 Oct 19:23:12 19:25:40 11° 271° (W) 19:28:09 29.400 - 29.500 MHz
SO-67 22 Oct 19:32:01 19:35:01 29° 73° (ENE) 19:38:02 435.3500 MHz FM
ISS 22 Oct 19:41:34 19:43:29 14° 21° (NNE) 19:45:23 145.800 FM
Hamsat 22 Oct 19:44:34 19:47:41 20° 266° (W) 19:50:48 145.90 MHz
JAS-2 22 Oct 19:53:33 19:57:41 20° 271° (W) 20:02:10 435.800 - 435.900 CW/SSB, 435.910 FM
KITSAT 1 22 Oct 20:04:03 20:05:55 11° 24° (NNE) 20:07:47 435.175 FM
OPAL 22 Oct 20:04:57 20:08:59 25° 295° (WNW) 20:12:58 ?
STRAND 1 22 Oct 20:05:55 20:10:46 40° 99° (E) 20:15:34 ?
HO-68 22 Oct 20:48:20 20:54:28 32° 63° (ENE) 21:00:38 435.675 MHz FM
SO-67 22 Oct 21:06:24 21:08:03 13° 267° (W) 21:09:42 435.3500 MHz FM
ISS 22 Oct 21:17:19 21:20:39 74° 39° (NE) 21:23:59 145.800 FM
STRAND 1 22 Oct 21:45:42 21:49:40 23° 294° (WNW) 21:53:37 ?
SO-50 22 Oct 21:48:25 21:50:17 12° 40° (NE) 21:52:09 436.795 FM
Oscar 11 22 Oct 21:50:35 21:53:58 23° 69° (ENE) 21:57:21 145.825 FM, Beacon 2401.500 USB
KITSAT 1 22 Oct 21:56:37 22:04:04 38° 50° (NE) 22:11:27 435.175 FM
ZACube-1 22 Oct 22:32:32 22:36:29 29° 70° (ENE) 22:40:25 437.345 MHz
HO-68 22 Oct 22:35:05 22:41:53 47° 260° (W) 22:48:46 435.675 MHz FM
UKube-1 22 Oct 22:41:48 22:46:08 79° 257° (WSW) 22:50:31 145.840 MHz, 145.915 MHz
RS-15 22 Oct 22:48:17 22:58:37 48° 110° (ESE) 23:08:48 29.354 - 29.394 USB, Beacon 29.352 USB
FUNcube-1 22 Oct 23:17:05 23:21:42 89° 77° (ENE) 23:26:16 145.950 - 145.970 MHz USB
Oscar 11 22 Oct 23:26:15 23:29:59 28° 264° (W) 23:33:44 145.825 FM, Beacon 2401.500 USB
SO-50 22 Oct 23:26:45 23:31:38 78° 59° (ENE) 23:36:31 436.795 FM
KITSAT 1 22 Oct 23:51:56 23:59:35 49° 249° (WSW) 00:07:12 435.175 FM
ZACube-1 23 Oct 00:09:03 00:12:49 25° 265° (W) 00:16:35 437.345 MHz
MaSat-1 23 Oct 00:30:18 00:34:01 29° 109° (ESE) 00:37:29 437.345 MHz
RS-15 23 Oct 01:00:24 01:10:53 48° 311° (NW) 01:21:23 29.354 - 29.394 USB, Beacon 29.352 USB
UOSAT-12 23 Oct 01:02:52 01:07:34 65° 57° (ENE) 01:12:10 437.025 FM, 437.400 FM
SO-50 23 Oct 01:10:07 01:11:32 11° 254° (WSW) 01:12:58 436.795 FM
